STARLINK-34058, 63818

Orbit data source: Space-Track

STARLINK-34058, 63818 is a payload satellite owned by SpaceX/Seattle (US) in LEO that was launched on Sun, 04 May 2025 UTC via an FALCON 9 launch vehicle from the Air Force Eastern Test Range (AFETR). Payload-class satellites include a variety of spacecraft equipped with specific instruments for various scientific and technological missions. These include communications satellites like Starlink; space stations such as the ISS; scientific satellites like the Hubble; Earth observation satellites from companies like Planet Labs, Umbra, and HawkEye 360; GPS; miniature CubeSats for education and research; and military/defense satellites.

Loading next visibility...
Identifier
63818, 2025-092Q
Orbit
LEO
Country
Flag of USUS
Related business
Manufacturer
SpaceX/Seattle
Mission
Operational Commercial Communications
Bus & Motor
STARLINK V2MO, Unknown motor
Mass
575 kg wet, ~530 kg dry
Launch date (UTC)
2025-05-04 (1 year ago)
Launch vehicle
FALCON 9
Launch site
Air Force Eastern Test Range (AFETR)
Object type
Payload
Rocket body
Debris
Shape & HBR
Box + 1 Pan, 17.7 m
Radar Cross Section
41.120 m², Large (>1 m²)

Expand to show TLE details & history
Last TLE update: 19 hours ago

TLE from 19 hours ago
0 STARLINK-34058
1 63818U 25092Q   26267.03973604  .00021159  00000-0  77581-3 0  9998
2 63818  42.9985 132.0316 0001284  11.9842 348.1040 15.27597693 79001
Epoch: 2026-09-24T00:57Z
TLE epoch observation values (Epoch: 2026-09-24T00:57:13.193Z)
Latitude
-0.00003°
Longitude
114.84437°
Altitude
481.909 km
Speed
7.627 km/s
True Right ascension
08h 48m 07s
True Declination
0° 00' 00"
Sunlit
Object was in daylight at epoch
Visualization orbit readout
Latitude
Unknown
Longitude
Unknown
Altitude
Unknown
Speed
Unknown
Apparent Right ascension
Unknown
Apparent Declination
Unknown
Sunlit
N/A
Visualization observer readout
Local Sidereal Time
13:03:46
Azimuth
Unknown
Elevation
Unknown
Doppler factor
Unknown
Orbital elements
Apogee altitude
485.823 km
Perigee altitude
484.06 km
Semi-major axis
6,863.079 km
Eccentricity
0.00013
Inclination
42.9985°
RAAN
132.0316°
Arg. of periapsis
11.9842°
True anomaly
348.10097°
Mean anomaly
348.104°
Eccentric anomaly
348.10248°
Mean motion
3.81737 °/min
Orbital period
94.31 mins
BSTAR
0.00077581
Loading maneuver chart data...
Computing Atmospheric mass density...
Loading historical data...
Loading historical data...
Loading historical data...
Loading historical data...
Loading historical data...
Loading historical data...
Loading historical data...

Documentation

Showing up to 5 results
|